This demonstration page uses our WeatherBlox Daily Observations layout. Learn more.

Left ArrowRight Arrow

Hourly Observations for November 5, 2022

Temp ( °F °C ) Dew Point ( °F °C ) Humidity (%) Winds ( mph kmh ) Pressure ( in mb ) Visibility ( mi km ) Precip ( " mm )
12:22 am 00:22 Cloudy with Light Rain 38 3.3 36 2.2 92 92 WNW 15 24 29.80 1009 6 10 0.05 1.27
12:53 am 00:53 Cloudy with Light Rain 38 3.3 35 1.7 89 89 WNW 21 33 29.77 1008 6 10 0.09 2.29
1:13 am 01:13 Cloudy with Light Rain 36 2.2 34 1.1 92 92 WNW 20 31 29.81 1010 7 11 0.03 0.76
1:53 am 01:53 Windy with Snow Likely 35 1.7 33 0.6 92 92 WNW 21 33 29.78 1008 5 8 0.06 1.52
2:53 am 02:53 Cloudy with Light Rain 36 2.2 34 1.1 92 92 W 18 30 29.77 1008 10 16 0.04 1.02
3:53 am 03:53 Cloudy with Light Rain 37 2.8 35 1.7 92 92 WNW 10 17 29.76 1008 10 16 0.02 0.51
4:53 am 04:53 Mostly Cloudy 38 3.3 36 2.2 92 92 W 7 11 29.76 1008 10 16 0.01 0.13
5:53 am 05:53 Partly Cloudy 37 2.8 35 1.7 92 92 WSW 7 11 29.75 1008 10 16 0.00 0.00
6:53 am 06:53 Mostly Clear 35 1.7 33 0.6 92 92 SW 8 13 29.76 1008 10 16 0.00 0.00
7:53 am 07:53 Mostly Clear 34 1.1 33 0.6 96 96 SW 8 13 29.75 1008 10 16 0.00 0.00
8:53 am 08:53 Sunny 37 2.8 35 1.7 92 92 WSW 6 9 29.76 1008 10 16 0.00 0.00
9:53 am 09:53 Sunny 41 5 36 2.2 82 82 SW 10 17 29.78 1008 10 16 0.00 0.00
10:53 am 10:53 Partly Cloudy 45 7.2 38 3.3 76 76 SSW 7 11 29.76 1008 10 16 0.00 0.00
11:53 am 11:53 Partly Cloudy 50 10 39 3.9 66 66 SSW 12 19 29.74 1007 10 16 0.00 0.00
12:53 pm 12:53 Partly Cloudy 53 11.7 41 5 63 63 S 15 24 29.73 1007 10 16 0.00 0.00
1:53 pm 13:53 Partly Cloudy 55 12.8 39 3.9 55 55 SSW 17 28 29.70 1006 10 16 0.00 0.00
2:53 pm 14:53 Partly Cloudy 58 14.4 37 2.8 46 46 SSW 22 35 29.67 1005 10 16 0.00 0.00
3:53 pm 15:53 Partly Cloudy 59 15 36 2.2 42 42 S 23 37 29.65 1004 10 16 0.00 0.00
4:53 pm 16:53 Partly Cloudy 59 15 36 2.2 42 42 S 20 31 29.64 1004 10 16 0.00 0.00
5:53 pm 17:53 Partly Cloudy 56 13.3 38 3.3 51 51 S 16 26 29.65 1004 10 16 0.00 0.00
6:53 pm 18:53 Partly Cloudy 51 10.6 38 3.3 61 61 S 13 20 29.66 1005 10 16 0.00 0.00
7:53 pm 19:53 Clear 51 10.6 39 3.9 63 63 S 17 28 29.67 1005 10 16 0.00 0.00
8:53 pm 20:53 Clear 51 10.6 40 4.4 65 65 S 17 28 29.68 1005 10 16 0.00 0.00
9:53 pm 21:53 Partly Cloudy 50 10 39 3.9 66 66 S 14 22 29.69 1005 10 16 0.00 0.00
10:53 pm 22:53 Partly Cloudy 48 8.9 39 3.9 71 71 S 8 13 29.70 1006 10 16 0.00 0.00
11:53 pm 23:53 Partly Cloudy 49 9.4 39 3.9 68 68 S 15 24 29.70 1006 10 16 0.00 0.00

Powered by AerisWeather